DECAYED

SL-14 DEB, 45322 (Decayed)

Orbit data source: Space-Track

SL-14 DEB, 45322 was space debris in LEO originally from a launch on Thu, 15 Aug 1991 UTC launched from the Plesetsk Missile And Space Complex (PKMTR). Debris objects in space refer to the collection of defunct objects orbiting the Earth. Examples of debris include non-operational satellites, rocket bodies, and fragments generated from explosions, collisions, or faulty payload assembly.

Not visible in the next 10 days
Identifier
45322, 1991-056BL
Orbit
Decayed
Country
Flag of CISCIS
Related business
Manufacturer
Unknown
Mission
Decayed spacecraft
Bus & Motor
Unknown
Mass
Unknown
Launch date (UTC)
1991-08-15 (34 years ago)
Launch vehicle
Unknown
Launch site
Plesetsk Missile And Space Complex (PKMTR)
Object type
Payload
Rocket body
Debris
Shape & HBR
Unknown shape, 0.1 m
Radar Cross Section
Small (<0.1 m²)

Expand to show TLE details & history
Last TLE update: 11 months ago

TLE from 11 months ago
0 SL-14 DEB
1 45322U 91056BL  25077.68029023  .06054785  00000-0  21510+0 0  9991
2 45322  82.6159 319.9201 0023248 249.4924 110.3818 15.23565681255081
Epoch: 2025-03-18T16:19Z
TLE epoch observation values (Epoch: 2025-03-18T16:19:37.075Z)
Latitude
-0.00005°
Longitude
-101.46368°
Altitude
503.79 km
Speed
7.609 km/s
True Right ascension
21h 19m 40s
True Declination
0° 00' 00"
Sunlit
Object was in daylight at epoch
Visualization orbit readout
Latitude
Unknown
Longitude
Unknown
Altitude
Unknown
Speed
Unknown
Apparent Right ascension
Unknown
Apparent Declination
Unknown
Sunlit
N/A
Visualization observer readout
Local Sidereal Time
13:52:13
Azimuth
Unknown
Elevation
Unknown
Doppler factor
Unknown
Orbital elements
Apogee altitude
508.028 km
Perigee altitude
476.084 km
Semi-major axis
6,870.193 km
Eccentricity
0.00232
Inclination
82.6159°
RAAN
319.9201°
Arg. of periapsis
249.4924°
True anomaly
110.63127°
Mean anomaly
110.3818°
Eccentric anomaly
110.50656°
Mean motion
3.81145 °/min
Orbital period
94.45 mins
BSTAR
0.2151
Loading maneuver chart data...
Computing Atmospheric mass density...
Loading historical data...
Loading historical data...
Loading historical data...
Loading historical data...
Loading historical data...
Loading historical data...
Loading historical data...

Documentation

Showing up to 5 results
|